Regional Weather Roundup
Issued by NWS State College, PA

Home | Current Version | Previous Version | Text Only | Print | Product List | Glossary On
Versions: 1 2 3 4 5 6 7 8 9 10 11 12 13 14 15 16 17 18 19 20 21 22 23 24 25 26 27 28 29 30 31 32 33 34 35 36 37 38 39 40 41 42 43 44 45 46 47 48 49 50
000
ASUS41 KCTP 092110
RWRCTP

REGIONAL WEATHER ROUNDUP
NATIONAL WEATHER SERVICE STATE COLLEGE PA
400 PM EST FRI DEC 09 2016

Note: "fair" indicates few or no clouds below 12,000 feet with no
significant weather and/or obstructions to visibility.

* = STATION THAT DOES NOT REPORT PRECIPITATION /E.G. RAIN...SNOW...ETC/
    THUNDER OR FOG.

PAZ002>004-007>009-013>016-020>023-029>032-092200-
WESTERN PENNSYLVANIA

CITY           SKY/WX    TMP DP  RH WIND       PRES   REMARKS
ERIE           CLOUDY    32  20  61 W20G26    30.31R
MEADVILLE      LGT SNOW  25  22  88 W10       30.30R VSB 1   WCI  15
FRANKLIN*        N/A     25  18  74 W10G20    30.30R WCI  15
NEW CASTLE     CLOUDY    28  20  71 W10       30.36R
BEAVER COUNTY  NOT AVBL
BUTLER*        CLOUDY    27  18  69 W9G17     30.37R
PITTSBURGH INT CLOUDY    27  18  69 W9        30.37R
PITTSBURGH     CLOUDY    25  16  68 W13G21    30.36R WCI  14
INDIANA*       CLOUDY    27  19  74 W15G22    30.34R WCI  15
LATROBE        CLOUDY    27  18  69 W12       30.37R
WASHINGTON CO* CLOUDY    27  16  63 W12G18    30.39R
$$

PAZ004>006-010>012-017>019-024>028-033>037-041-042-045-046-049>053-092200-
CENTRAL PENNSYLVANIA

CITY           SKY/WX    TMP DP  RH WIND       PRES   REMARKS
BRADFORD       HVY SNOW  23  22  96 NW9       30.19R VSB 1/4 WCI  13
DUBOIS         MOCLDY    25  17  72 W13G24    30.24R WCI  14
CLEARFIELD     CLOUDY    28  18  66 W9        30.25R
JOHNSTOWN      LGT SNOW  21  17  84 W15G21    30.25R FOG     WCI   8
ALTOONA        LGT SNOW  26  20  77 W13       30.29R WCI  15
STATE COLLEGE  FLURRIES  28  19  69 SW12G23   30.25R
WILLIAMSPORT   CLOUDY    34  16  47 W14G21    30.24R
SELINSGROVE    LGT SNOW  30  28  92 VRB6      30.28R FOG
FT INDIANTOWN  CLEAR     33  16  48 W15G24    30.24R
CAPITAL CITY   PTCLDY    34  14  43 W18G24    30.28R
HARRISBURG     PTCLDY    34  19  54 W18       30.27R
YORK           CLOUDY    33  17  51 NW15G23   30.29R
$$

PAZ038>040-043-044-047-048-054-055-060>062-067>071-092200-
EASTERN PENNSYLVANIA

CITY           SKY/WX    TMP DP  RH WIND       PRES   REMARKS
SCRANTON       CLOUDY    31  18  58 N15G23    30.18R
MOUNT POCONO   CLOUDY    27  11  51 NW20G29   30.08R WCI  13
ALLENTOWN      MOCLDY    33  21  61 W13       30.20R
QUAKERTOWN*    CLOUDY    32  23  69 NW10G17   30.21R
READING        MOCLDY    36  16  44 NW18G25   30.23R
LANCASTER      CLEAR     34  18  52 W22G29    30.24R
COATESVILLE    MOCLDY    34  16  47 NW20G26   30.24R
POTTSTOWN      MOCLDY    34  17  50 W10G22    30.24R
BLUE BELL      CLOUDY    34  19  55 W9        30.21R
DOYLESTOWN     CLOUDY    35  20  54 NW13G24   30.20R
WILLOW GROVE   NOT AVBL
NORTH PHILA    CLOUDY    37  18  46 NW17G28   30.24R
PHILADELPHIA   CLOUDY    38  15  39 W17G30    30.25R
$$



USA.gov is the U.S. government's official web portal to all federal, state and local government web resources and services.